Location: Ferris
(32.5340°N, 96.6656°W)
Time: 10:49:54
(UTC+00:00)

Cosmos 1025 Rocket - Pass Details

Date: 11 February 2026
Orbit: 587 x 609 km, 82.5° (Epoch: 7 March)

Event Time Altitude Azimuth Distance (km) Brightness Sun altitude
Rises 12:01:54 0° 353° (N) 2,873 6.3 -15.5°
Reaches altitude 10° 12:04:08 10° 354° (N) 1,964 5.5 -15.1°
Maximum altitude 12:08:29 89° 76° (ENE) 611 3.0 -14.2°
Drops below altitude 10° 12:12:48 10° 174° (S) 1,943 5.8 -13.3°
Sets 12:15:00 0° 175° (S) 2,839 6.6 -12.8°
